GW6653 Weather Reports


time (UTC)temp
F
wind
direction
speed
knots
gust
knots
rain 1hr
in
rain 24hr
in
rain mn
in
humidity
%
barometer
mb
20260507192731 55 328 0.0 0.0 0.00 0.00 0.03 77 1005.1
20260507192233 55 306 0.0 1.7 0.00 0.00 0.03 77 1005.1
20260507191731 55 294 0.0 2.6 0.00 0.00 0.03 76 1005.1
20260507191229 55 25 1.7 3.5 0.00 0.00 0.03 76 1005.1
20260507190731 55 320 0.0 3.5 0.00 0.00 0.03 75 1005.1
20260507190231 55 27 2.6 3.5 0.00 0.00 0.03 76 1005.1
20260507185730 55 6 1.7 3.5 0.00 0.00 0.03 75 1005.1
20260507185230 55 182 0.9 3.5 0.00 0.00 0.03 75 1005.1
20260507184731 55 10 0.9 0.9 0.00 0.00 0.03 75 1005.1
20260507184233 55 4 0.9 0.9 0.00 0.00 0.03 76 1005.1
20260507183731 55 11 0.9 1.7 0.00 0.00 0.03 77 1005.1
20260507183233 55 281 1.7 2.6 0.00 0.00 0.03 76 1005.1
20260507182731 55 357 1.7 3.5 0.00 0.00 0.03 76 1005.1
20260507182230 55 72 2.6 4.3 0.00 0.00 0.03 77 1005.1
20260507181730 55 17 1.7 3.5 0.00 0.00 0.03 78 1005.1
20260507181232 55 12 1.7 2.6 0.00 0.00 0.03 79 1005.1
20260507180732 55 23 0.0 3.5 0.00 0.00 0.03 79 1005.1
20260507180238 55 39 1.7 1.7 0.00 0.00 0.03 79 1005.1
20260507175732 55 320 0.0 3.5 0.00 0.00 0.03 80 1005.1
20260507175232 55 73 2.6 3.5 0.00 0.00 0.03 81 1005.1
20260507174730 55 189 0.0 0.9 0.00 0.00 0.03 82 1005.1
20260507174230 55 168 0.9 3.5 0.00 0.00 0.03 82 1005.4
20260507173732 55 204 0.9 1.7 0.00 0.00 0.03 83 1005.1
20260507173229 55 57 2.6 3.5 0.00 0.00 0.03 82 1005.4
20260507172731 55 324 0.0 3.5 0.00 0.00 0.03 82 1005.8
20260507172232 55 124 3.5 5.2 0.00 0.00 0.03 82 1005.8
20260507171731 55 316 0.0 2.6 0.00 0.00 0.03 81 1005.4
20260507171231 55 55 2.6 2.6 0.00 0.00 0.03 80 1005.8
20260507170732 56 237 2.6 6.1 0.00 0.00 0.03 80 1005.8
20260507170235 56 296 0.0 0.9 0.00 0.00 0.03 82 1005.8
20260507165729 56 329 0.0 2.6 0.00 0.00 0.03 82 1005.8
20260507165232 55 2 0.9 3.5 0.00 0.00 0.03 79 1005.8
20260507164731 55 262 0.9 3.5 0.00 0.00 0.03 78 1006.1
20260507164233 55 124 4.3 4.3 0.00 0.00 0.03 77 1006.1
20260507163732 56 231 0.9 5.2 0.00 0.00 0.03 78 1006.1
20260507163231 55 304 0.0 3.5 0.00 0.00 0.03 78 1006.1
20260507162730 55 141 0.0 1.7 0.00 0.00 0.03 78 1006.1
20260507162233 55 70 3.5 6.1 0.00 0.00 0.03 78 1006.1
20260507161732 56 282 1.7 4.3 0.00 0.00 0.03 80 1006.1
20260507161233 56 71 1.7 6.1 0.00 0.00 0.03 80 1006.1
20260507160732 56 28 2.6 2.6 0.00 0.00 0.03 80 1006.1
20260507160232 56 338 0.0 3.5 0.00 0.00 0.03 80 1006.1
20260507155732 56 324 0.0 1.7 0.00 0.00 0.03 81 1006.1
20260507155232 56 352 0.9 2.6 0.00 0.00 0.03 81 1006.1
20260507154732 56 297 1.7 3.5 0.00 0.00 0.03 80 1006.1
20260507154231 57 322 0.9 0.9 0.00 0.00 0.03 81 1006.1
20260507153732 57 312 0.0 0.0 0.00 0.00 0.03 82 1006.1
20260507153232 57 326 0.0 0.9 0.00 0.00 0.03 81 1006.1
20260507152731 57 314 0.0 1.7 0.00 0.00 0.03 82 1006.1
20260507152231 57 343 0.0 1.7 0.00 0.00 0.03 83 1006.1
20260507151732 57 171 2.6 3.5 0.00 0.00 0.03 82 1006.1
20260507151231 57 310 0.0 0.9 0.00 0.00 0.03 83 1006.1
20260507150732 57 300 0.0 1.7 0.00 0.00 0.03 83 1006.1
20260507150232 57 318 0.0 1.7 0.00 0.00 0.03 83 1006.1
20260507145731 57 314 0.9 0.9 0.00 0.00 0.03 84 1006.1
20260507145232 57 320 0.9 0.9 0.00 0.00 0.03 85 1006.1
20260507144732 57 310 1.7 1.7 0.00 0.00 0.03 85 1006.1
20260507144232 57 322 0.0 0.0 0.00 0.00 0.03 86 1006.1
20260507143740 57 312 0.0 0.0 0.00 0.00 0.03 86 1005.8
20260507143232 57 311 0.0 0.0 0.00 0.00 0.03 86 1005.8
20260507142732 58 20 0.0 1.7 0.00 0.00 0.03 86 1005.8
20260507142232 58 23 0.9 1.7 0.00 0.00 0.03 86 1005.8
20260507141731 58 334 0.9 2.6 0.00 0.00 0.03 86 1006.1
20260507141236 58 326 0.0 1.7 0.00 0.00 0.03 86 1005.8
20260507140731 58 331 0.9 1.7 0.00 0.00 0.03 86 1006.1
20260507140232 58 322 1.7 1.7 0.00 0.00 0.03 86 1006.1
20260507135732 58 284 0.0 1.7 0.00 0.00 0.03 86 1006.1
20260507135232 58 318 0.0 1.7 0.00 0.00 0.03 86 1006.1
20260507134731 58 313 0.0 0.9 0.00 0.00 0.03 86 1006.1
20260507134230 58 327 0.0 0.0 0.00 0.00 0.03 86 1006.1
20260507133731 58 299 0.0 1.7 0.00 0.00 0.03 86 1006.1
20260507133232 59 279 0.0 1.7 0.00 0.00 0.03 86 1006.1
20260507132732 59 321 0.0 1.7 0.00 0.00 0.03 86 1006.1
20260507132232 59 323 0.0 0.9 0.00 0.00 0.03 86 1005.8
20260507131732 59 334 0.0 2.6 0.00 0.00 0.03 86 1005.8
20260507131233 59 330 0.0 0.9 0.00 0.00 0.03 86 1005.4
20260507130732 59 325 0.9 1.7 0.00 0.00 0.03 87 1005.8
20260507130231 59 289 0.0 0.9 0.00 0.00 0.03 87 1005.8
20260507125732 58 298 0.0 0.0 0.00 0.00 0.03 89 1005.4
20260507125232 57 318 0.0 0.0 0.00 0.00 0.03 92 1005.4
20260507124732 57 321 0.0 0.0 0.00 0.00 0.03 92 1006.1
20260507124232 57 338 0.0 0.0 0.00 0.00 0.03 92 1005.8
20260507123731 57 319 0.0 0.0 0.00 0.00 0.03 92 1005.8
20260507123231 57 326 0.0 0.0 0.00 0.00 0.03 93 1005.8
20260507122731 57 311 0.0 0.0 0.00 0.00 0.03 93 1005.8
20260507122231 57 297 0.0 0.0 0.00 0.00 0.03 93 1005.8
20260507121730 57 324 0.0 0.0 0.00 0.00 0.03 93 1005.4
20260507121229 57 310 0.0 0.0 0.00 0.00 0.03 94 1005.4
20260507120731 56 322 0.0 1.7 0.00 0.00 0.03 93 1005.4
20260507120231 56 314 0.0 0.0 0.00 0.00 0.03 93 1005.4
20260507115732 56 303 0.0 0.0 0.00 0.00 0.03 93 1005.8
20260507115230 56 286 0.0 0.0 0.00 0.00 0.03 93 1005.4
20260507114731 56 315 0.0 0.0 0.00 0.00 0.03 93 1005.8
20260507114231 56 313 0.0 0.0 0.00 0.00 0.03 93 1006.1
20260507113731 56 302 0.0 0.0 0.00 0.00 0.03 94 1005.8
20260507113232 56 320 0.0 0.0 0.00 0.00 0.03 94 1005.4
20260507112731 56 310 0.0 0.0 0.00 0.00 0.03 94 1005.8
20260507112229 56 291 0.0 0.0 0.00 0.00 0.03 94 1005.4
20260507111731 56 305 0.0 0.0 0.00 0.00 0.03 94 1005.4
20260507111230 56 315 0.0 0.0 0.00 0.00 0.03 93 1005.1
20260507110730 56 311 0.0 0.0 0.00 0.00 0.03 93 1005.1
20260507110230 56 316 0.0 0.0 0.00 0.00 0.03 93 1005.4
20260507105729 56 291 0.0 0.0 0.00 0.00 0.03 93 1005.4
20260507105232 56 314 0.0 0.0 0.00 0.00 0.03 93 1005.1
20260507104729 56 316 0.0 0.0 0.00 0.00 0.03 93 1005.1
20260507104232 56 312 0.0 0.0 0.00 0.00 0.03 93 1005.1
20260507103731 57 306 0.0 0.0 0.00 0.00 0.03 93 1005.1
20260507103232 57 304 0.0 0.0 0.00 0.00 0.03 93 1005.1
20260507102732 57 296 0.0 1.7 0.00 0.00 0.03 93 1005.1
20260507102230 57 307 0.0 0.0 0.00 0.00 0.03 93 1005.1
20260507101731 57 299 0.0 2.6 0.00 0.00 0.03 93 1004.7
20260507101231 57 295 0.0 0.0 0.00 0.00 0.03 93 1005.1
20260507100732 58 286 0.0 0.9 0.00 0.00 0.03 92 1005.1
20260507100232 58 296 0.0 2.6 0.00 0.00 0.03 92 1004.7
20260507095731 58 325 0.0 0.0 0.02 0.00 0.03 93 1005.1
20260507095233 58 287 0.0 0.9 0.02 0.00 0.03 92 1004.7
20260507094732 58 309 0.0 1.7 0.01 0.00 0.02 92 1005.1
20260507094232 59 310 0.9 1.7 0.01 0.00 0.02 92 1004.7
20260507093731 60 37 1.7 2.6 0.01 0.00 0.02 92 1004.4
20260507093233 61 311 0.0 0.0 0.01 0.00 0.02 92 1004.4
20260507092731 62 5 0.9 1.7 0.01 0.00 0.02 93 1004.4
20260507092231 63 6 0.0 0.9 0.01 0.00 0.02 92 1004.4
20260507091729 64 336 2.6 2.6 0.01 0.00 0.02 93 1004.4
20260507091234 65 2 1.7 3.5 0.01 0.00 0.02 94 1004.1
20260507090732 66 313 0.0 0.0 0.00 0.00 0.01 94 1004.1
20260507090231 66 317 0.0 0.0 0.00 0.00 0.01 94 1004.1
20260507085730 66 310 0.0 0.0 0.00 0.00 0.00 94 1004.1
20260507085230 66 310 0.0 0.0 0.00 0.00 0.00 94 1004.1
20260507084730 66 310 0.0 0.0 0.00 0.00 0.00 94 1004.1
20260507083814 66 305 0.0 0.0 0.00 0.00 0.00 94 1004.1
20260507083229 66 307 0.0 0.0 0.00 0.00 0.00 94 1003.7
20260507082734 66 309 0.0 0.0 0.00 0.00 0.00 94 1003.7
20260507082231 66 311 0.0 0.0 0.00 0.00 0.00 93 1003.7
20260507081731 66 328 0.0 0.0 0.00 0.00 0.00 93 1003.4
20260507081232 66 314 0.0 0.0 0.00 0.00 0.00 93 1003.7
20260507080730 66 316 0.0 0.0 0.00 0.00 0.00 93 1003.7
20260507080229 66 311 0.0 0.0 0.00 0.00 0.00 93 1003.4
20260507075730 66 307 0.0 0.0 0.00 0.00 0.00 93 1003.4
20260507075231 66 307 0.0 0.0 0.00 0.00 0.00 93 1003.0
20260507074731 66 314 0.0 0.0 0.00 0.00 0.00 93 1003.0
20260507074231 66 321 0.0 0.0 0.00 0.00 0.00 92 1002.7
20260507073731 67 323 0.0 0.0 0.00 0.00 0.00 92 1002.7
20260507073232 67 303 0.0 0.0 0.00 0.00 0.00 92 1003.0
20260507072730 67 313 0.0 0.0 0.00 0.00 0.00 92 1003.0
20260507072230 67 303 0.0 0.0 0.00 0.00 0.00 92 1003.0
20260507071732 67 338 0.0 0.0 0.00 0.00 0.00 91 1003.0
20260507071229 67 324 0.0 0.9 0.00 0.00 0.00 91 1003.0
20260507070732 67 311 0.0 0.0 0.00 0.00 0.00 91 1003.4
20260507070231 67 307 0.0 0.0 0.00 0.00 0.00 91 1003.7
20260507065733 67 311 0.0 0.9 0.00 0.00 0.00 91 1003.7
20260507065233 67 312 0.0 1.7 0.00 0.00 0.00 90 1003.4
20260507064731 67 309 0.0 0.0 0.00 0.00 0.00 90 1003.4
20260507064231 67 296 0.0 0.0 0.00 0.00 0.00 90 1003.4
20260507063731 67 315 0.0 0.0 0.00 0.00 0.00 90 1003.0
20260507063232 66 310 0.0 1.7 0.00 0.00 0.00 90 1003.4
20260507062733 66 296 0.0 1.7 0.00 0.00 0.00 90 1003.0
20260507062231 66 296 0.0 0.0 0.00 0.00 0.00 90 1003.0
20260507061732 66 300 0.0 0.0 0.00 0.00 0.00 90 1003.0
20260507061230 66 300 0.0 0.0 0.00 0.00 0.00 91 1003.0
20260507060731 66 304 0.0 0.0 0.00 0.00 0.00 91 1003.0
20260507060234 66 330 0.0 0.0 0.00 0.00 0.00 91 1003.0
20260507055730 66 334 0.0 0.0 0.00 0.00 0.00 91 1003.0
20260507055231 66 279 0.0 0.0 0.00 0.00 0.00 91 1003.0
20260507054730 66 303 0.0 1.7 0.00 0.00 0.00 91 1003.0
20260507054229 66 280 0.0 0.0 0.00 0.00 0.00 91 1003.4
20260507053729 66 317 0.0 1.7 0.00 0.00 0.00 91 1003.0
20260507053230 66 311 0.0 0.0 0.00 0.00 0.00 91 1003.4
20260507052733 67 302 0.0 0.0 0.00 0.00 0.00 90 1003.4
20260507052231 67 305 0.0 0.0 0.00 0.00 0.00 89 1003.4
20260507051730 67 304 0.0 0.9 0.00 0.00 0.00 89 1003.4
20260507051231 67 301 0.0 0.0 0.00 0.00 0.00 89 1003.4
20260507050731 67 295 0.0 0.9 0.00 0.00 0.00 89 1003.7
20260507050232 67 305 0.0 0.0 0.00 0.00 0.00 89 1004.1
20260507045731 67 356 0.0 0.0 0.00 0.00 0.00 89 1004.1
20260507045229 67 325 0.0 0.9 0.00 0.00 0.00 89 1004.4
20260507044729 67 269 0.0 0.0 0.00 0.00 0.00 89 1004.4
20260507044230 67 289 0.0 0.9 0.00 0.00 0.00 89 1004.4
20260507043731 67 312 0.0 0.0 0.00 0.00 0.00 89 1004.7
20260507043230 67 298 0.0 0.9 0.00 0.00 0.00 89 1004.7
20260507042730 67 279 0.0 0.0 0.00 0.00 0.00 89 1004.7
20260507042230 67 310 0.0 0.0 0.00 0.00 0.00 89 1004.7
20260507041730 67 301 0.0 0.0 0.00 0.00 0.00 90 1004.7
20260507041231 67 309 0.0 0.0 0.00 0.00 0.00 90 1004.4
20260507040730 67 309 0.0 0.0 0.00 0.00 0.00 90 1004.4
20260507040232 66 295 0.0 0.0 0.00 0.00 0.00 90 1004.4
20260507035729 66 281 0.0 1.7 0.00 0.00 0.05 90 1004.4
20260507035231 66 297 0.0 2.6 0.00 0.00 0.05 91 1004.1
20260507034731 66 290 0.0 0.0 0.00 0.00 0.05 91 1004.4
20260507034230 66 317 0.0 0.0 0.00 0.00 0.05 91 1004.4
20260507033730 66 284 0.0 2.6 0.00 0.00 0.05 91 1004.4
20260507033231 66 311 0.0 0.0 0.00 0.00 0.05 91 1004.4
20260507032730 66 15 1.7 1.7 0.00 0.00 0.05 92 1004.1
20260507032229 66 304 0.0 1.7 0.00 0.00 0.05 92 1004.1
20260507031730 65 266 0.0 1.7 0.00 0.00 0.05 92 1003.7
20260507031231 65 284 0.0 0.0 0.00 0.00 0.05 92 1004.1
20260507030729 65 309 0.0 0.0 0.00 0.00 0.05 92 1004.1
20260507030232 65 325 0.0 0.0 0.00 0.00 0.05 92 1004.1
20260507025729 65 312 0.0 0.0 0.00 0.00 0.05 91 1004.1
20260507025229 65 303 0.0 0.0 0.00 0.00 0.05 91 1003.7
20260507024732 65 324 0.0 0.0 0.00 0.00 0.05 91 1003.7
20260507024231 65 291 0.0 0.0 0.00 0.00 0.05 91 1003.7
20260507023731 65 316 0.0 0.0 0.00 0.00 0.05 91 1004.1
20260507023232 65 308 0.0 0.0 0.00 0.00 0.05 90 1004.1
20260507022733 65 297 0.0 0.0 0.00 0.00 0.05 90 1004.1
20260507022230 65 294 0.0 0.0 0.00 0.00 0.05 90 1004.1
20260507021732 65 302 0.0 0.0 0.00 0.00 0.05 90 1004.1
20260507021231 66 304 0.0 0.0 0.00 0.00 0.05 89 1004.1
20260507020731 65 304 0.0 0.0 0.00 0.00 0.05 89 1004.1
20260507020231 66 298 0.0 0.0 0.00 0.00 0.05 89 1004.4
20260507015731 66 306 0.0 0.0 0.00 0.00 0.05 89 1004.7
20260507015232 66 302 0.0 0.0 0.00 0.00 0.05 89 1004.7
20260507014731 66 292 0.0 0.0 0.00 0.00 0.05 89 1004.7
20260507014232 66 287 0.0 0.0 0.00 0.00 0.05 88 1004.4
20260507013731 66 297 0.0 0.0 0.00 0.00 0.05 88 1004.4
20260507013231 66 300 0.0 0.0 0.00 0.00 0.05 88 1004.4
20260507012732 66 300 0.0 0.0 0.00 0.00 0.05 87 1004.1
20260507012232 66 300 0.0 0.0 0.00 0.00 0.05 87 1004.4
20260507011731 66 302 0.0 0.0 0.00 0.00 0.05 87 1004.1
20260507011231 66 302 0.0 0.0 0.00 0.00 0.05 87 1004.1
20260507010732 66 299 0.0 0.0 0.00 0.00 0.05 86 1004.4
20260507010232 66 293 0.0 0.0 0.00 0.00 0.05 86 1004.1
20260507005729 66 300 0.0 0.0 0.00 0.00 0.05 86 1004.1
20260507005231 67 302 0.0 0.0 0.00 0.00 0.05 85 1004.1
20260507004731 67 297 0.0 0.0 0.00 0.00 0.05 85 1004.1
20260507004231 67 298 0.0 0.0 0.00 0.00 0.05 85 1004.1
20260507003729 67 321 0.0 0.0 0.00 0.00 0.05 84 1004.1
20260507003231 67 304 0.0 0.0 0.00 0.00 0.05 84 1004.4
20260507002730 68 313 0.0 0.0 0.00 0.00 0.05 83 1004.1
20260507002232 68 304 0.0 0.0 0.00 0.00 0.05 83 1004.4
20260507001734 68 331 0.0 0.9 0.00 0.00 0.05 83 1004.1
20260507001230 68 322 0.0 0.0 0.00 0.00 0.05 82 1004.4
20260507000731 69 312 0.0 0.0 0.00 0.00 0.05 82 1004.4
20260507000234 69 314 0.0 0.0 0.00 0.00 0.05 82 1004.4
20260506235732 69 315 0.0 0.0 0.00 0.00 0.05 81 1004.4
20260506235232 69 302 0.0 1.7 0.00 0.00 0.05 81 1004.4
20260506234730 69 296 0.0 0.0 0.00 0.00 0.05 81 1004.1
20260506234231 69 305 0.0 0.9 0.00 0.00 0.05 80 1004.1
20260506233731 70 301 0.0 0.0 0.00 0.00 0.05 80 1004.1
20260506233232 70 314 0.0 0.9 0.00 0.00 0.05 80 1003.7
20260506232731 70 302 0.0 0.0 0.00 0.00 0.05 80 1004.1
20260506232231 70 308 0.0 0.0 0.00 0.00 0.05 79 1004.1
20260506231731 70 320 0.0 0.0 0.00 0.00 0.05 79 1004.1
20260506231231 71 312 0.9 1.7 0.00 0.00 0.05 79 1004.1
20260506230730 71 127 0.9 1.7 0.00 0.00 0.05 79 1004.1
20260506230232 71 49 2.6 2.6 0.00 0.00 0.05 79 1004.1
20260506225731 71 61 0.9 1.7 0.00 0.00 0.05 78 1004.1
20260506225231 71 79 1.7 2.6 0.00 0.00 0.05 78 1004.1
20260506224731 71 307 0.0 0.0 0.00 0.00 0.05 78 1004.1
20260506224231 71 317 0.0 1.7 0.00 0.00 0.05 77 1004.1
20260506223731 71 297 0.0 0.9 0.00 0.00 0.05 77 1004.1
20260506223231 71 303 0.0 0.0 0.00 0.00 0.05 77 1004.1
20260506222731 71 314 0.0 0.9 0.00 0.00 0.05 77 1004.1
20260506222232 71 306 0.0 0.0 0.00 0.00 0.05 76 1004.1
20260506221729 71 305 0.0 0.9 0.00 0.00 0.05 76 1004.1
20260506221229 71 170 0.0 1.7 0.00 0.00 0.05 76 1004.1
20260506220732 71 305 0.9 0.9 0.00 0.00 0.05 75 1004.1
20260506220231 71 291 0.0 1.7 0.00 0.00 0.05 75 1004.1
20260506215729 71 315 0.0 1.7 0.01 0.00 0.05 75 1004.1
20260506215231 71 292 1.7 2.6 0.01 0.00 0.05 75 1004.1
20260506214731 71 340 2.6 2.6 0.01 0.00 0.05 75 1004.1
20260506214231 71 347 0.9 1.7 0.01 0.00 0.05 74 1004.1
20260506213731 72 309 1.7 2.6 0.01 0.00 0.05 75 1004.1
20260506213231 72 318 0.0 2.6 0.01 0.00 0.05 74 1004.1
20260506212729 72 26 5.2 5.2 0.01 0.00 0.05 75 1004.1
20260506212231 71 286 2.6 2.6 0.01 0.00 0.05 74 1004.1
20260506211732 71 317 0.0 3.5 0.01 0.00 0.05 74 1004.4
20260506211231 72 357 1.7 2.6 0.01 0.00 0.05 76 1004.4
20260506210730 71 296 0.0 2.6 0.00 0.00 0.04 76 1004.1
20260506210232 71 300 0.9 1.7 0.00 0.00 0.04 76 1004.1
20260506205732 71 326 0.9 0.9 0.00 0.00 0.04 77 1004.1
20260506205231 71 20 0.0 3.5 0.00 0.00 0.04 77 1004.1
20260506204730 71 290 1.7 1.7 0.00 0.00 0.04 77 1004.1
20260506204231 71 328 1.7 1.7 0.00 0.00 0.04 78 1004.1
20260506203731 71 300 0.9 2.6 0.00 0.00 0.04 78 1004.1
20260506203232 71 292 2.6 2.6 0.00 0.00 0.04 78 1004.1
20260506202732 71 274 0.0 1.7 0.00 0.00 0.04 78 1004.1
20260506202231 71 288 0.0 1.7 0.00 0.00 0.04 78 1004.1
20260506201731 70 293 0.0 1.7 0.00 0.00 0.04 78 1004.1
20260506201232 70 294 0.0 0.0 0.00 0.00 0.04 79 1004.1
20260506200732 70 1 0.0 0.0 0.00 0.00 0.04 80 1004.1
20260506200231 70 274 0.9 2.6 0.00 0.00 0.04 79 1003.7
20260506195731 70 334 0.9 2.6 0.00 0.00 0.04 80 1004.1
20260506195232 70 334 0.9 5.2 0.00 0.00 0.04 79 1003.4
20260506194732 70 111 0.9 5.2 0.00 0.00 0.04 79 1003.0
20260506194231 70 328 0.0 2.6 0.00 0.00 0.04 79 1003.4
20260506193731 70 265 0.0 2.6 0.00 0.00 0.04 80 1003.0
20260506193234 70 305 0.0 4.3 0.00 0.00 0.04 80 1003.4